LARES-2

Last updated on Mon Sep 01 2025 00:03:36 GMT+0000 (Coordinated Universal Time)

1 53105U 22080A 25242.35928328 -.00000005 00000+0 00000+0 0 9995 2 53105 70.1658 45.0481 0005066 37.8696 322.2283 6.38965210 73081
UTC large
Height (km)
Speed (km/s)
/
Latitude / Longitude
Inclination (degrees)
Orbital Period (minutes)
Azimuth
Elevation
Range (km)
Doppler Factor

Next 0 passes for location: London (51.5072 / 0.1276)

Sorry there are no passes over London.